Location: *
(46.3591°S, 173.7942°W)
Time: 04:19:30
(UTC+00:00)

Daily predictions for brighter satellites

Satellite Brightness Start Highest point End
(mag) Time Altitude Azimuth Time Altitude Azimuth Time Altitude Azimuth
IRIDIUM 114 4.4 06:03:05 10° S 06:08:23 67° E 06:13:37 10° NNE
ASTEX 1 4.1 06:05:50 10° N 06:10:49 62° W 06:15:51 10° SSW
Cosmos 1354 Rocket 4.2 06:09:53 10° SSW 06:15:11 55° ESE 06:20:22 10° NE
CZ-4 R/B 3.3 06:14:47 10° E 06:15:26 10° E 06:16:06 10° E
Cosmos 2333 Rocket 2.4 06:09:40 10° SSW 06:15:29 87° WNW 06:21:16 10° NNE
USA 306 4.3 06:12:13 10° WSW 06:15:52 28° S 06:19:31 10° ESE
Radarsat Rocket 4.3 06:11:06 10° SSE 06:16:51 48° ENE 06:22:55 10° N
Cosmos 1486 Rocket 4.3 06:11:37 10° SSW 06:16:55 75° WNW 06:22:10 10° NNE
IRIDIUM 103 4.4 06:12:12 10° S 06:17:33 80° E 06:22:48 10° N
COSMOS 2487 2.5 06:16:52 10° NNW 06:19:46 63° WSW 06:22:43 10° SSE
Cosmos 2219 Rocket 2.2 06:14:21 10° SSW 06:20:05 75° ESE 06:25:46 10° NNE
Cosmos 2297 Rocket 3.7 06:18:14 10° NE 06:21:15 15° E 06:24:18 10° ESE
Cosmos 1092 Rocket 4.1 06:15:12 10° S 06:21:36 70° E 06:27:58 10° NNE
Lacrosse 4 Rocket 4.3 06:19:36 10° WSW 06:22:11 16° WNW 06:24:43 10° NW
H-2A R/B 3.2 06:18:00 10° S 06:22:47 46° WSW 06:27:30 10° NW
SL-08 RB Rocket 3.6 06:19:15 10° SSE 06:23:49 76° ENE 06:28:20 10° N
Cosmos 1703 Rocket 3.8 06:20:23 10° N 06:24:51 82° W 06:29:26 10° S
SL-27 R/B 2.2 06:25:08 10° NNW 06:28:24 78° ENE 06:31:44 10° SSE
Cosmos 1953 4.1 06:27:53 10° SSE 06:30:32 16° ESE 06:32:25 13° E
Uosat 12 SS-18 rocket 4.4 06:25:48 10° NW 06:30:47 74° SW 06:35:07 10° SE
USA 234 4.2 06:24:32 10° SE 06:30:48 47° SSW 06:37:04 10° W
Cosmos 1674 3.0 06:28:11 10° NNE 06:31:41 41° E 06:35:14 10° SSE
Cosmos 2034 Rocket 4.5 06:26:23 10° NNW 06:32:38 69° W 06:38:54 10° S
Okean O Rocket 2.9 06:31:09 10° SE 06:34:24 20° E 06:37:37 10° NE
CZ-4C R/B 3.0 06:32:17 10° NNE 06:35:46 87° WNW 06:39:20 10° SSW
Cosmos 2237 Rocket 3.2 06:32:38 10° S 06:37:44 31° SE 06:41:48 14° ENE
USA 308 4.3 06:34:40 10° SW 06:38:22 29° S 06:42:03 10° ESE
Okean 1-7 4.1 06:35:01 10° NNW 06:39:15 51° WSW 06:43:35 10° S
Cosmos 2360 Rocket 3.8 06:34:38 10° SW 06:39:50 37° WNW 06:45:00 10° N
In-Cosmos 22 4.1 06:38:27 10° N 06:43:54 72° E 06:49:34 10° SSE
Cosmos 1300 Rocket 3.5 06:39:42 10° S 06:44:08 67° E 06:48:28 10° NNE
NOAA 6 4.4 06:39:38 10° S 06:44:50 72° WSW 06:49:57 10° NNW
Cosmos 1782 Rocket 3.9 06:40:26 10° SSW 06:44:54 71° W 06:49:17 10° N
COSMOS 2428 2.7 06:41:56 10° SSW 06:47:42 81° ESE 06:53:27 10° NNE
YAOGAN 1 3.2 06:46:31 10° SSE 06:50:34 35° E 06:54:34 10° NNE
Alouette 2 Rocket 3.5 06:45:57 10° N 06:50:51 88° E 06:54:38 10° SSE
Okean 2 Rocket 3.7 06:48:05 10° S 06:52:18 38° ESE 06:55:22 17° NE
SJ 16-02 1.8 06:48:58 10° SSW 06:53:25 66° WNW 06:57:49 10° N
KORONAS-FOTON 3.7 06:50:02 10° N 06:53:50 85° E 06:57:42 10° S
Cosmos 1300 4.1 06:51:00 10° SSE 06:53:57 20° ESE 06:54:38 20° E
Meteor 1-21 4.2 06:50:09 10° N 06:55:47 82° E 07:01:30 10° SSE
Cosmos 1777 Rocket 4.0 06:53:00 10° SSW 06:58:24 86° ESE 07:03:42 10° NNE
CZ-4C R/B 3.8 06:51:43 10° NNE 06:58:26 27° ENE 07:04:28 10° ESE
NOSS 0 Rocket 4.0 06:52:48 10° SSW 06:59:04 66° ESE 07:04:03 16° NE
ARGOS 4.4 06:56:20 10° S 07:01:31 45° WSW 07:06:37 10° NW
Okean 2 3.3 06:58:00 10° N 07:02:07 70° E 07:06:16 10° SSE
CZ-4B R/B 3.3 06:58:26 10° SSE 07:03:41 48° E 07:08:50 10° N
Cosmos 1707 3.7 07:00:22 10° NNW 07:04:10 51° WSW 07:08:02 10° S
USA 305 3.9 07:02:51 10° SW 07:06:43 35° SSE 07:08:59 20° ESE
X-37B 3.0 07:05:32 10° WNW 07:07:01 13° NNW 07:08:17 11° N
PAYLOAD B 4.2 07:04:17 10° SSE 07:10:00 77° ENE 07:15:37 10° N
Cosmos 1626 2.5 07:06:55 10° NNW 07:10:34 65° W 07:14:18 10° S
PSLV R/B 3.9 07:08:39 17° NNE 07:11:48 71° ESE 07:16:05 10° S
Cosmos 2279 Rocket 3.9 07:06:00 10° N 07:12:17 80° E 07:18:38 10° S
Geosat 4.1 07:08:25 14° NNE 07:12:50 82° WNW 07:17:57 10° SSW
Cosmos 1271 Rocket 3.5 07:12:15 10° S 07:15:43 31° ESE 07:15:56 31° E
Cosmos 2142 Rocket 4.4 07:10:04 10° N 07:16:14 84° E 07:22:29 10° S
Meteor 1-16 Rocket 4.0 07:11:31 10° S 07:16:56 73° ESE 07:21:20 16° NNE
SL-16 R/B 3.6 07:13:15 10° S 07:17:51 24° SE 07:19:50 20° ESE
Kosmos-1675 4.2 07:11:45 10° SW 07:18:08 71° WNW 07:20:43 21° NNE
Lacrosse 5 rocket 1.0 07:16:05 10° NW 07:19:45 84° SW 07:22:29 18° SE
Cosmos 2151 Rocket 3.6 07:15:20 10° S 07:19:54 66° E 07:22:24 25° NNE
APEX 3.6 07:17:20 10° SSW 07:22:07 56° ESE 07:23:20 39° ENE
H-2A R/B 2.1 07:19:38 19° NNE 07:22:55 86° ESE 07:27:32 10° SSW
Meteor 2-10 Rocket 3.8 07:19:31 10° S 07:24:41 51° ESE 07:26:59 31° NE
Cosmos 1758 4.3 07:21:28 10° SSW 07:25:23 47° W 07:29:13 10° NNW
Aureole 3 Rocket 2.7 07:25:26 42° NE 07:26:14 52° E 07:29:29 10° SSE
Cosmos 1908 3.9 07:22:47 10° SSW 07:26:38 55° W 07:30:10 12° N
Cosmos 990 Rocket 4.2 07:23:38 10° SSW 07:28:43 50° ESE 07:30:22 36° ENE
CZ-4B R/B 2.0 07:33:07 38° SSE 07:33:07 38° SSE 07:35:18 10° S
Sich 1 Rocket 3.9 07:30:06 10° SSW 07:34:40 66° W 07:38:11 16° N
Okean-O 4.2 07:33:53 10° SE 07:35:47 20° SE 07:35:47 20° SE
Cosmos 1607 4.4 07:31:38 10° SW 07:37:57 60° WNW 07:42:07 22° NNE
USA 276 2.5 07:36:25 10° W 07:39:22 57° SSW 07:39:22 57° SSW
FALCON 9 DEB 3.3 07:36:48 10° NW 07:39:25 56° NW 07:39:25 56° NW
Cosmos 1674 Rocket 3.5 07:38:38 21° N 07:41:39 80° E 07:46:12 10° SSE
IRAS Rocket 4.3 07:39:48 37° NE 07:41:54 61° ESE 07:47:30 10° S
USA 307 3.6 07:39:20 10° SW 07:43:18 42° SSE 07:44:03 37° SE
ATLAS 3B R/B 2.7 07:37:59 10° NNW 07:45:17 63° ENE 07:52:14 10° SE
SL-14 R/B 3.5 07:45:43 18° NNW 07:48:40 73° W 07:52:48 10° S
Cosmos 468 Rocket 4.1 07:48:42 47° NE 07:49:30 52° ENE 07:54:43 10° SSE
Cosmos 2227 Rocket 2.3 07:49:17 44° NE 07:50:17 49° ENE 07:55:47 10° SE
Cosmos 1898 Rocket 3.7 07:45:26 10° SSW 07:50:32 49° ESE 07:51:09 46° E
CZ-4 R/B 1.5 07:46:49 10° S 07:50:50 75° WSW 07:53:19 23° NNW
ATLAS 5 CENTAUR R/B 2.0 07:46:21 10° SW 07:52:07 74° NW 07:53:25 49° NNE
USA 306 3.2 07:51:48 10° SW 07:55:53 52° SSE 07:56:02 52° SSE
SJ-6B 4.3 07:54:15 10° SSE 07:56:12 27° SSE 07:56:12 27° SSE
Cosmos 1980 3.9 07:55:42 10° SSW 08:01:23 68° WNW 08:03:27 39° N
Cosmos 540 Rocket 4.4 08:03:34 32° SE 08:03:34 32° SE 08:06:39 10° SSE
Cosmos 2297 Rocket 2.1 07:58:47 10° NNW 08:04:28 88° WSW 08:10:13 10° SSE
ERBS 4.4 08:03:31 10° SW 08:04:52 20° SSW 08:04:52 20° SSW
Cosmos 1953 3.2 08:03:08 10° SSW 08:07:06 47° W 08:08:02 39° NW
SL-08 ROCKET BODY 4.5 08:01:23 10° S 08:07:35 59° ESE 08:08:26 54° ENE
Cosmos 1238 Rocket 3.4 08:01:51 10° S 08:07:43 76° E 08:08:13 69° NE
Okean O Rocket 2.6 08:06:43 10° S 08:10:59 46° WSW 08:15:10 10° NW
Cosmos 1378 Rocket 4.3 08:08:26 22° NW 08:11:01 52° WSW 08:15:21 10° S
CSL-04 Debris 4.1 08:12:23 10° SSE 08:17:59 76° ENE 08:18:25 72° NE
USA 308 3.5 08:14:13 10° SW 08:17:39 51° SSW 08:17:39 51° SSW
Cosmos 1655 Rocket 4.4 08:12:16 10° SSW 08:18:41 65° W 08:21:59 30° NNW
Cosmos 1763 Rocket 3.6 08:14:57 16° NNW 08:19:16 78° WSW 08:24:40 10° SSE
Meteor 1-24 Rocket 4.2 08:21:42 48° ESE 08:21:42 48° ESE 08:26:32 10° SSE
Cosmos 2237 Rocket 2.8 08:16:29 10° SW 08:22:03 51° WNW 08:23:39 39° NNW
Okean 1 Rocket 3.7 08:19:02 10° SSW 08:23:21 52° W 08:23:32 51° WNW
SL-8 R/B 4.0 08:18:30 10° WNW 08:22:31 61° WNW 08:22:31 61° WNW
NOSS 3-1 (C) 4.3 08:16:19 10° N 08:25:02 51° ENE 08:32:45 10° SE
Cosmos 1455 Rocket 4.1 08:22:38 10° S 08:25:33 38° SSE 08:25:33 38° SSE
Cosmos 1300 4.3 08:26:05 10° SSW 08:29:28 31° W 08:29:28 31° W
Cosmos 372 Rocket 4.3 08:30:27 10° SSW 08:34:57 58° SSE 08:34:57 58° SSE
Cosmos 2219 3.2 08:42:08 76° S 08:42:08 76° S 08:47:28 10° SSE
USA 81 4.4 08:43:32 59° WNW 08:43:57 61° W 08:49:17 10° S
CZ-4C R/B 2.9 08:38:13 10° NW 08:46:40 85° SW 08:53:44 10° SE
CSL-04 Rocket 3.8 08:43:21 10° S 08:48:40 69° WSW 08:48:40 69° WSW
Meteor 2-5 Rocket 3.8 08:50:46 75° SSW 08:50:46 75° SSW 08:56:17 10° S
Resurs 01 Rocket 3.9 08:48:56 10° SSE 08:50:00 17° SSE 08:50:00 17° SSE
Cosmos 1244 Rocket 4.5 08:52:06 10° S 08:58:09 79° WSW 08:58:09 79° WSW
Lacrosse 5 rocket 3.7 08:56:11 10° WSW 08:58:02 20° SW 08:58:02 20° SW
SL-16 R/B 2.6 08:56:48 10° SSW 09:01:43 61° WSW 09:01:43 61° WSW
Cosmos 1937 Rocket 4.4 09:00:50 10° SSW 09:04:59 47° WSW 09:04:59 47° WSW
Okean-O 4.4 09:10:12 10° S 09:13:21 30° SW 09:13:21 30° SW
Cosmos 1745 Rocket 4.5 09:17:25 10° S 09:22:19 56° S 09:22:19 56° S
Cosmos 2227 Rocket 3.8 09:30:39 15° WNW 09:34:33 32° SW 09:39:40 10° SSE
Cosmos 1943 4.4 09:30:11 10° SSW 09:33:43 38° S 09:33:43 38° S
ATLAS 3B R/B 3.9 09:29:34 10° WNW 09:36:23 40° SW 09:42:51 10° SSE
BREEZE-M DEB (TANK) 4.2 09:26:09 10° W 09:36:46 56° W 09:36:46 56° W
USA 234 4.0 09:55:16 47° SSE 09:55:16 47° SSE 10:01:24 10° SW
Cosmos 2263 Rocket 4.2 10:37:21 24° S 10:37:21 24° S 10:39:56 10° SSE
CZ-4C R/B 4.3 10:29:21 10° W 10:36:07 30° SSW 10:41:51 10° SSE
CENTAUR R/B 4.3 11:09:56 10° SSW 11:12:41 23° SSW 11:12:41 23° SSW
CZ-2D R/B 4.4 11:26:35 19° SSE 11:26:35 19° SSE 11:28:22 10° S
Resurs 1-4 Rocket 4.4 11:26:45 21° SSE 11:26:45 21° SSE 11:28:42 10° S
Cosmos 2082 Rocket 4.3 11:45:53 10° S 11:49:09 23° SSE 11:49:09 23° SSE
